QPF
0.01 0.00 0.01 0.00 0.00 0.01 0.00 0.00 0.00 0.00 0.00 0.00 0.00 0.00 0.00 0.00 0.00 0.00 0.00 0.01 0.01 0.01 0.01 0.03 0.04 0.04 0.04 0.04 0.03 0.03 0.04 0.04 0.04 0.05 0.05 0.05 0.04 0.05 0.08 0.08 0.03 0.02 0.03
0.00 0.00 0.01 0.01 0.00 0.00 0.00 0.00 0.00 0.00 0.00 0.00 0.00 0.00 0.00 0.00 0.00 0.00 0.00 0.01 0.01 0.02 0.02 0.03 0.04 0.04 0.03 0.03 0.03 0.03 0.04 0.06 0.06 0.06 0.04 0.03 0.04 0.05 0.06 0.06 0.05 0.03 0.05
0.00 0.00 0.00 0.00 0.00 0.00 0.00 0.00 0.01 0.00 0.00 0.00 0.01 0.00 0.01 0.01 0.00 0.00 0.01 0.01 0.01 0.01 0.02 0.03 0.04 0.04 0.02 0.02 0.02 0.03 0.04 0.06 0.08 0.08 0.04 0.01 0.02 0.06 0.06 0.06 0.06 0.04 0.03
0.00 0.00 0.00 0.00 0.00 0.00 0.00 0.00 0.00 0.00 0.00 0.00 0.01 0.01 0.01 0.01 0.00 0.00 0.00 0.00 0.00 0.01 0.02 0.03 0.03 0.03 0.02 0.02 0.03 0.04 0.05 0.07 0.09 0.07 0.03 0.00 0.01 0.04 0.05 0.05 0.05 0.03 0.02
0.00 0.00 0.00 0.00 0.00 0.00 0.00 0.00 0.00 0.00 0.00 0.00 0.00 0.00 0.01 0.01 0.01 0.00 0.01 0.00 0.01 0.01 0.02 0.02 0.01 0.01 0.01 0.02 0.03 0.05 0.05 0.08 0.11 0.09 0.03 0.01 0.01 0.03 0.03 0.03 0.04 0.03 0.02
0.00 0.00 0.00 0.00 0.00 0.00 0.00 0.00 0.00 0.00 0.00 0.00 0.00 0.00 0.01 0.01 0.01 0.01 0.01 0.01 0.01 0.01 0.01 0.01 0.01 0.01 0.01 0.01 0.02 0.03 0.05 0.10 0.09 0.07 0.02 0.01 0.00 0.02 0.03 0.02 0.03 0.02 0.02
0.00 0.00 0.00 0.00 0.00 0.00 0.00 0.00 0.00 0.00 0.00 0.00 0.00 0.01 0.01 0.01 0.01 0.01 0.01 0.01 0.01 0.01 0.01 0.01 0.01 0.01 0.02 0.03 0.02 0.03 0.06 0.11 0.07 0.03 0.01 0.00 0.01 0.02 0.02 0.02 0.02 0.02 0.02
0.01 0.00 0.00 0.00 0.00 0.00 0.00 0.00 0.01 0.00 0.00 0.00 0.00 0.00 0.00 0.01 0.01 0.00 0.00 0.01 0.01 0.01 0.01 0.01 0.01 0.01 0.01 0.02 0.03 0.03 0.06 0.11 0.06 0.04 0.02 0.00 0.01 0.03 0.02 0.01 0.01 0.01 0.01
0.02 0.00 0.00 0.00 0.00 0.00 0.00 0.00 0.00 0.00 0.00 0.01 0.01 0.01 0.00 0.00 0.00 0.00 0.00 0.00 0.01 0.01 0.01 0.01 0.01 0.01 0.01 0.02 0.02 0.03 0.06 0.10 0.08 0.04 0.02 0.00 0.01 0.02 0.02 0.01 0.01 0.01 0.01
0.03 0.02 0.01 0.00 0.00 0.00 0.01 0.01 0.01 0.01 0.00 0.01 0.01 0.01 0.01 0.01 0.01 0.00 0.00 0.00 0.01 0.01 0.01 0.01 0.02 0.02 0.02 0.02 0.03 0.04 0.07 0.10 0.08 0.04 0.01 0.01 0.01 0.02 0.02 0.01 0.01 0.01 0.01
0.07 0.04 0.06 0.06 0.01 0.01 0.01 0.01 0.00 0.01 0.01 0.01 0.01 0.01 0.01 0.01 0.00 0.00 0.00 0.00 0.01 0.01 0.01 0.01 0.02 0.01 0.02 0.02 0.03 0.04 0.07 0.12 0.11 0.05 0.01 0.01 0.02 0.02 0.01 0.01 0.01 0.01 0.01
0.09 0.07 0.07 0.05 0.02 0.01 0.01 0.01 0.01 0.00 0.00 0.01 0.00 0.01 0.02 0.01 0.01 0.01 0.00 0.01 0.01 0.03 0.03 0.02 0.02 0.02 0.02 0.02 0.04 0.05 0.12 0.17 0.14 0.04 0.02 0.02 0.02 0.02 0.02 0.01 0.01 0.01 0.02
0.10 0.08 0.10 0.05 0.02 0.02 0.01 0.01 0.01 0.01 0.01 0.01 0.01 0.01 0.02 0.01 0.01 0.01 0.00 0.01 0.01 0.02 0.02 0.02 0.03 0.03 0.03 0.03 0.04 0.08 0.11 0.09 0.10 0.05 0.02 0.02 0.02 0.02 0.02 0.01 0.01 0.01 0.01
0.13 0.10 0.13 0.10 0.05 0.05 0.05 0.03 0.02 0.02 0.01 0.02 0.01 0.01 0.01 0.02 0.01 0.01 0.01 0.01 0.01 0.02 0.02 0.03 0.05 0.09 0.08 0.08 0.07 0.09 0.11 0.09 0.10 0.05 0.03 0.03 0.02 0.02 0.02 0.01 0.01 0.01 0.01
0.11 0.09 0.16 0.17 0.11 0.11 0.14 0.06 0.04 0.03 0.02 0.03 0.02 0.02 0.01 0.01 0.03 0.02 0.02 0.02 0.04 0.03 0.02 0.04 0.06 0.06 0.07 0.06 0.07 0.08 0.10 0.10 0.09 0.06 0.03 0.03 0.03 0.03 0.03 0.02 0.01 0.01 0.01
0.09 0.08 0.16 0.20 0.10 0.10 0.09 0.07 0.06 0.08 0.09 0.04 0.03 0.02 0.02 0.02 0.01 0.01 0.02 0.03 0.05 0.04 0.03 0.04 0.04 0.05 0.06 0.04 0.06 0.07 0.07 0.08 0.08 0.06 0.03 0.03 0.03 0.03 0.03 0.02 0.02 0.02 0.01
0.15 0.10 0.11 0.14 0.08 0.07 0.08 0.08 0.08 0.09 0.07 0.05 0.04 0.03 0.03 0.02 0.01 0.01 0.01 0.02 0.03 0.03 0.03 0.03 0.03 0.04 0.05 0.06 0.06 0.05 0.06 0.07 0.05 0.04 0.03 0.03 0.02 0.03 0.03 0.02 0.02 0.02 0.03
0.14 0.11 0.08 0.08 0.07 0.07 0.09 0.12 0.12 0.12 0.10 0.09 0.08 0.04 0.03 0.02 0.01 0.01 0.01 0.03 0.03 0.02 0.03 0.03 0.03 0.03 0.06 0.06 0.05 0.05 0.06 0.07 0.06 0.04 0.05 0.03 0.02 0.01 0.02 0.03 0.02 0.02 0.02
0.05 0.06 0.08 0.07 0.07 0.09 0.11 0.13 0.14 0.15 0.19 0.18 0.10 0.05 0.04 0.03 0.02 0.01 0.01 0.03 0.02 0.02 0.02 0.02 0.03 0.03 0.04 0.03 0.03 0.05 0.08 0.07 0.06 0.05 0.04 0.03 0.04 0.03 0.02 0.02 0.03 0.03 0.03
0.04 0.05 0.07 0.09 0.10 0.11 0.15 0.14 0.18 0.19 0.19 0.21 0.15 0.07 0.04 0.05 0.03 0.02 0.02 0.01 0.02 0.02 0.02 0.04 0.05 0.04 0.02 0.03 0.05 0.08 0.10 0.08 0.07 0.07 0.05 0.04 0.04 0.04 0.04 0.03 0.02 0.03 0.04
0.03 0.03 0.06 0.09 0.10 0.14 0.15 0.12 0.14 0.18 0.19 0.22 0.22 0.10 0.05 0.05 0.05 0.02 0.02 0.02 0.02 0.02 0.01 0.02 0.02 0.03 0.02 0.03 0.07 0.11 0.11 0.10 0.08 0.07 0.06 0.07 0.07 0.07 0.08 0.08 0.05 0.03 0.03
0.03 0.04 0.08 0.12 0.14 0.15 0.14 0.11 0.10 0.13 0.18 0.20 0.19 0.12 0.06 0.05 0.05 0.02 0.02 0.02 0.02 0.02 0.01 0.01 0.01 0.03 0.03 0.03 0.05 0.06 0.07 0.11 0.13 0.08 0.07 0.08 0.10 0.11 0.10 0.09 0.08 0.07 0.05
0.04 0.05 0.08 0.14 0.17 0.18 0.16 0.14 0.13 0.13 0.16 0.20 0.21 0.13 0.07 0.06 0.05 0.03 0.01 0.02 0.02 0.02 0.02 0.01 0.01 0.01 0.02 0.03 0.04 0.04 0.03 0.04 0.07 0.09 0.08 0.08 0.09 0.10 0.09 0.10 0.09 0.10 0.08
0.05 0.05 0.06 0.12 0.18 0.22 0.20 0.16 0.12 0.09 0.09 0.11 0.11 0.11 0.08 0.06 0.05 0.04 0.02 0.02 0.02 0.02 0.02 0.01 0.01 0.01 0.01 0.02 0.02 0.02 0.03 0.03 0.04 0.07 0.10 0.10 0.10 0.09 0.09 0.08 0.08 0.11 0.11
0.04 0.03 0.05 0.10 0.13 0.17 0.17 0.18 0.19 0.12 0.11 0.11 0.10 0.11 0.09 0.07 0.06 0.04 0.03 0.03 0.03 0.03 0.03 0.02 0.02 0.02 0.01 0.02 0.03 0.04 0.05 0.04 0.04 0.03 0.05 0.09 0.14 0.12 0.06 0.05 0.07 0.08 0.13
0.02 0.03 0.03 0.07 0.09 0.11 0.13 0.16 0.18 0.15 0.13 0.13 0.10 0.08 0.07 0.06 0.05 0.04 0.04 0.05 0.05 0.04 0.03 0.02 0.02 0.02 0.02 0.03 0.04 0.05 0.05 0.05 0.05 0.05 0.03 0.03 0.06 0.09 0.10 0.10 0.07 0.06 0.07
MSLP
1013.19 1012.86 1012.75 1012.90 1013.24 1013.70 1014.16 1014.54 1014.77 1014.85 1014.81 1014.72 1014.65 1014.64 1014.71 1014.86 1015.06 1015.26 1015.44 1015.56 1015.64 1015.69 1015.75 1015.83 1015.96 1016.13 1016.32 1016.53 1016.72 1016.89 1017.02 1017.14 1017.25 1017.36 1017.50 1017.66 1017.85 1018.05 1018.27 1018.50 1018.71 1018.92 1019.11
1013.05 1012.85 1012.86 1013.08 1013.47 1013.94 1014.39 1014.74 1014.94 1015.01 1014.98 1014.92 1014.88 1014.91 1015.03 1015.21 1015.41 1015.60 1015.75 1015.83 1015.88 1015.90 1015.94 1016.03 1016.17 1016.35 1016.57 1016.80 1017.00 1017.18 1017.31 1017.42 1017.52 1017.64 1017.77 1017.94 1018.13 1018.35 1018.57 1018.79 1019.00 1019.20 1019.39
1012.88 1012.80 1012.91 1013.20 1013.63 1014.11 1014.55 1014.89 1015.09 1015.17 1015.16 1015.13 1015.14 1015.21 1015.35 1015.54 1015.74 1015.91 1016.01 1016.06 1016.07 1016.08 1016.11 1016.20 1016.35 1016.56 1016.81 1017.05 1017.27 1017.45 1017.59 1017.71 1017.82 1017.94 1018.09 1018.26 1018.46 1018.67 1018.89 1019.10 1019.30 1019.48 1019.66
1012.71 1012.75 1012.94 1013.29 1013.74 1014.23 1014.67 1015.00 1015.21 1015.30 1015.33 1015.34 1015.39 1015.49 1015.66 1015.84 1016.02 1016.15 1016.22 1016.24 1016.23 1016.23 1016.27 1016.38 1016.55 1016.79 1017.05 1017.30 1017.53 1017.72 1017.87 1018.00 1018.13 1018.27 1018.43 1018.62 1018.82 1019.03 1019.23 1019.42 1019.60 1019.77 1019.94
1012.61 1012.73 1012.99 1013.38 1013.85 1014.34 1014.77 1015.09 1015.30 1015.41 1015.47 1015.52 1015.60 1015.74 1015.91 1016.08 1016.24 1016.34 1016.39 1016.39 1016.38 1016.39 1016.45 1016.59 1016.79 1017.05 1017.32 1017.58 1017.81 1017.99 1018.15 1018.30 1018.44 1018.61 1018.79 1019.00 1019.20 1019.40 1019.59 1019.75 1019.91 1020.06 1020.22
1012.62 1012.80 1013.10 1013.51 1013.99 1014.45 1014.86 1015.16 1015.36 1015.48 1015.57 1015.65 1015.77 1015.92 1016.10 1016.27 1016.41 1016.50 1016.53 1016.53 1016.54 1016.58 1016.69 1016.86 1017.10 1017.37 1017.64 1017.89 1018.11 1018.29 1018.45 1018.60 1018.76 1018.95 1019.16 1019.38 1019.59 1019.78 1019.94 1020.07 1020.20 1020.34 1020.50
1012.76 1012.99 1013.32 1013.73 1014.18 1014.61 1014.97 1015.23 1015.41 1015.53 1015.63 1015.74 1015.88 1016.06 1016.25 1016.42 1016.56 1016.64 1016.68 1016.70 1016.74 1016.83 1016.98 1017.19 1017.46 1017.74 1018.01 1018.24 1018.43 1018.60 1018.75 1018.90 1019.08 1019.29 1019.52 1019.75 1019.96 1020.13 1020.27 1020.38 1020.48 1020.59 1020.75
1013.02 1013.28 1013.63 1014.03 1014.44 1014.81 1015.10 1015.31 1015.46 1015.56 1015.66 1015.79 1015.97 1016.17 1016.38 1016.57 1016.72 1016.81 1016.87 1016.92 1017.00 1017.12 1017.32 1017.56 1017.84 1018.13 1018.38 1018.59 1018.76 1018.90 1019.03 1019.19 1019.38 1019.61 1019.85 1020.09 1020.30 1020.46 1020.57 1020.65 1020.72 1020.82 1020.97
1013.35 1013.64 1013.99 1014.38 1014.74 1015.04 1015.26 1015.41 1015.51 1015.59 1015.70 1015.85 1016.06 1016.30 1016.54 1016.75 1016.92 1017.03 1017.11 1017.18 1017.29 1017.45 1017.66 1017.93 1018.21 1018.49 1018.72 1018.91 1019.05 1019.17 1019.29 1019.45 1019.65 1019.89 1020.15 1020.39 1020.60 1020.74 1020.83 1020.89 1020.94 1021.02 1021.15
1013.65 1013.99 1014.35 1014.72 1015.03 1015.27 1015.42 1015.51 1015.56 1015.63 1015.74 1015.93 1016.18 1016.46 1016.75 1016.99 1017.18 1017.31 1017.40 1017.48 1017.60 1017.76 1017.98 1018.24 1018.52 1018.78 1018.99 1019.16 1019.28 1019.39 1019.51 1019.67 1019.88 1020.13 1020.39 1020.64 1020.85 1020.99 1021.06 1021.10 1021.13 1021.19 1021.31
1013.85 1014.23 1014.63 1014.99 1015.27 1015.46 1015.55 1015.58 1015.61 1015.67 1015.80 1016.03 1016.33 1016.66 1016.99 1017.27 1017.48 1017.63 1017.72 1017.79 1017.90 1018.04 1018.24 1018.48 1018.74 1018.97 1019.17 1019.32 1019.44 1019.54 1019.67 1019.84 1020.06 1020.32 1020.60 1020.85 1021.06 1021.19 1021.26 1021.29 1021.30 1021.35 1021.46
1013.89 1014.32 1014.75 1015.11 1015.38 1015.54 1015.60 1015.61 1015.62 1015.69 1015.86 1016.13 1016.49 1016.88 1017.25 1017.57 1017.80 1017.95 1018.03 1018.09 1018.16 1018.27 1018.43 1018.64 1018.86 1019.07 1019.26 1019.40 1019.53 1019.65 1019.79 1019.98 1020.21 1020.48 1020.75 1021.01 1021.21 1021.35 1021.43 1021.46 1021.48 1021.52 1021.61
1013.72 1014.21 1014.67 1015.06 1015.33 1015.48 1015.54 1015.55 1015.58 1015.68 1015.89 1016.21 1016.62 1017.06 1017.48 1017.83 1018.08 1018.23 1018.31 1018.34 1018.38 1018.44 1018.56 1018.72 1018.91 1019.11 1019.29 1019.44 1019.59 1019.73 1019.89 1020.09 1020.33 1020.60 1020.87 1021.12 1021.33 1021.47 1021.56 1021.61 1021.65 1021.70 1021.79
1013.37 1013.90 1014.40 1014.82 1015.11 1015.28 1015.36 1015.40 1015.46 1015.61 1015.86 1016.24 1016.69 1017.17 1017.63 1018.01 1018.28 1018.43 1018.50 1018.52 1018.53 1018.57 1018.65 1018.78 1018.94 1019.12 1019.31 1019.48 1019.64 1019.81 1019.99 1020.20 1020.44 1020.69 1020.95 1021.19 1021.39 1021.55 1021.66 1021.74 1021.81 1021.89 1022.00
1012.90 1013.45 1013.97 1014.41 1014.74 1014.94 1015.07 1015.16 1015.28 1015.47 1015.78 1016.19 1016.67 1017.18 1017.65 1018.05 1018.34 1018.52 1018.60 1018.63 1018.63 1018.66 1018.73 1018.84 1018.99 1019.17 1019.36 1019.55 1019.73 1019.92 1020.11 1020.32 1020.55 1020.78 1021.01 1021.23 1021.42 1021.58 1021.72 1021.83 1021.95 1022.07 1022.21
1012.39 1012.94 1013.46 1013.92 1014.27 1014.53 1014.72 1014.87 1015.06 1015.30 1015.64 1016.07 1016.56 1017.06 1017.54 1017.94 1018.25 1018.46 1018.58 1018.64 1018.69 1018.74 1018.82 1018.94 1019.09 1019.28 1019.47 1019.68 1019.88 1020.08 1020.27 1020.47 1020.67 1020.86 1021.05 1021.23 1021.40 1021.56 1021.71 1021.87 1022.03 1022.20 1022.38
1011.94 1012.45 1012.96 1013.42 1013.80 1014.11 1014.37 1014.60 1014.85 1015.15 1015.50 1015.92 1016.38 1016.86 1017.31 1017.71 1018.03 1018.28 1018.46 1018.59 1018.69 1018.80 1018.92 1019.07 1019.25 1019.44 1019.65 1019.87 1020.08 1020.28 1020.47 1020.65 1020.81 1020.95 1021.09 1021.22 1021.35 1021.49 1021.65 1021.83 1022.04 1022.26 1022.48
1011.63 1012.08 1012.54 1012.99 1013.39 1013.76 1014.10 1014.41 1014.72 1015.05 1015.41 1015.79 1016.20 1016.62 1017.02 1017.39 1017.72 1018.00 1018.25 1018.46 1018.65 1018.84 1019.03 1019.22 1019.43 1019.65 1019.87 1020.09 1020.31 1020.51 1020.69 1020.84 1020.96 1021.06 1021.14 1021.20 1021.28 1021.39 1021.53 1021.72 1021.95 1022.20 1022.46
1011.48 1011.85 1012.26 1012.68 1013.11 1013.53 1013.93 1014.33 1014.70 1015.06 1015.40 1015.74 1016.07 1016.39 1016.72 1017.04 1017.36 1017.67 1017.99 1018.29 1018.57 1018.85 1019.11 1019.36 1019.60 1019.83 1020.07 1020.29 1020.51 1020.72 1020.89 1021.03 1021.12 1021.18 1021.19 1021.20 1021.22 1021.27 1021.37 1021.54 1021.76 1022.03 1022.31
1011.50 1011.78 1012.12 1012.51 1012.95 1013.42 1013.90 1014.37 1014.80 1015.19 1015.51 1015.78 1016.02 1016.24 1016.47 1016.72 1017.01 1017.34 1017.70 1018.08 1018.45 1018.81 1019.14 1019.44 1019.71 1019.96 1020.20 1020.44 1020.67 1020.88 1021.06 1021.20 1021.28 1021.30 1021.27 1021.22 1021.17 1021.15 1021.19 1021.31 1021.50 1021.75 1022.03
1011.63 1011.84 1012.10 1012.46 1012.90 1013.41 1013.96 1014.51 1015.00 1015.40 1015.71 1015.92 1016.06 1016.17 1016.30 1016.47 1016.71 1017.04 1017.43 1017.86 1018.30 1018.72 1019.10 1019.43 1019.72 1019.99 1020.23 1020.48 1020.72 1020.95 1021.16 1021.31 1021.41 1021.42 1021.37 1021.26 1021.15 1021.06 1021.02 1021.07 1021.19 1021.39 1021.65
1011.83 1011.95 1012.15 1012.47 1012.91 1013.46 1014.07 1014.68 1015.23 1015.66 1015.95 1016.11 1016.18 1016.19 1016.22 1016.31 1016.50 1016.79 1017.19 1017.64 1018.11 1018.57 1018.98 1019.33 1019.63 1019.89 1020.15 1020.40 1020.67 1020.93 1021.17 1021.37 1021.49 1021.51 1021.45 1021.32 1021.16 1021.00 1020.88 1020.84 1020.89 1021.02 1021.23
1012.01 1012.08 1012.23 1012.50 1012.93 1013.50 1014.15 1014.81 1015.41 1015.87 1016.17 1016.30 1016.31 1016.25 1016.20 1016.22 1016.35 1016.61 1016.99 1017.44 1017.92 1018.38 1018.79 1019.14 1019.43 1019.69 1019.94 1020.21 1020.49 1020.80 1021.09 1021.33 1021.50 1021.56 1021.52 1021.38 1021.18 1020.97 1020.78 1020.66 1020.63 1020.69 1020.83
1012.15 1012.18 1012.27 1012.51 1012.91 1013.48 1014.14 1014.84 1015.47 1015.97 1016.28 1016.41 1016.40 1016.31 1016.21 1016.18 1016.27 1016.49 1016.83 1017.26 1017.72 1018.17 1018.56 1018.89 1019.16 1019.41 1019.65 1019.92 1020.23 1020.57 1020.90 1021.20 1021.42 1021.53 1021.52 1021.40 1021.20 1020.96 1020.73 1020.55 1020.45 1020.45 1020.53
1012.23 1012.24 1012.29 1012.48 1012.84 1013.37 1014.03 1014.73 1015.38 1015.90 1016.24 1016.40 1016.39 1016.30 1016.19 1016.14 1016.20 1016.39 1016.71 1017.10 1017.53 1017.95 1018.31 1018.61 1018.86 1019.08 1019.32 1019.59 1019.91 1020.27 1020.64 1020.98 1021.25 1021.41 1021.45 1021.36 1021.19 1020.96 1020.72 1020.52 1020.38 1020.34 1020.38
1012.28 1012.28 1012.29 1012.42 1012.72 1013.20 1013.82 1014.49 1015.14 1015.67 1016.04 1016.23 1016.26 1016.20 1016.11 1016.07 1016.12 1016.30 1016.59 1016.95 1017.35 1017.73 1018.06 1018.33 1018.55 1018.76 1018.98 1019.24 1019.56 1019.92 1020.31 1020.68 1020.98 1021.19 1021.27 1021.25 1021.12 1020.94 1020.74 1020.56 1020.43 1020.37 1020.39
Thickness
5782 5784 5783 5782 5781 5780 5780 5779 5779 5779 5778 5777 5776 5776 5775 5774 5773 5772 5771 5769 5768 5766 5765 5764 5762 5762 5761 5759 5758 5757 5756 5755 5753 5752 5750 5749 5748 5747 5745 5744 5742 5741 5740
5788 5785 5783 5782 5780 5779 5779 5778 5778 5778 5777 5776 5775 5775 5774 5773 5772 5771 5770 5768 5767 5766 5764 5763 5761 5760 5759 5758 5757 5755 5754 5753 5752 5751 5749 5748 5747 5745 5744 5743 5741 5740 5739
5789 5786 5783 5781 5779 5778 5778 5777 5777 5776 5775 5775 5774 5774 5773 5772 5771 5770 5769 5768 5766 5765 5763 5762 5760 5759 5758 5756 5755 5754 5752 5751 5750 5749 5748 5747 5745 5744 5743 5742 5741 5739 5738
5790 5786 5783 5781 5779 5778 5777 5776 5775 5774 5774 5773 5773 5773 5772 5771 5770 5769 5768 5767 5765 5764 5762 5761 5759 5757 5756 5755 5753 5752 5751 5750 5748 5747 5746 5745 5744 5743 5742 5741 5740 5738 5737
5788 5785 5782 5780 5778 5777 5775 5775 5774 5773 5773 5772 5772 5771 5771 5770 5769 5768 5766 5766 5764 5763 5761 5759 5757 5756 5754 5753 5751 5750 5749 5748 5747 5746 5745 5744 5743 5742 5740 5739 5739 5737 5736
5786 5783 5781 5779 5777 5776 5774 5773 5773 5772 5771 5771 5770 5770 5769 5768 5768 5766 5765 5764 5763 5761 5759 5758 5756 5754 5753 5751 5750 5749 5748 5747 5745 5744 5743 5742 5741 5740 5739 5738 5737 5736 5735
5784 5782 5780 5777 5775 5774 5773 5772 5771 5770 5770 5769 5769 5768 5768 5767 5766 5765 5764 5763 5761 5759 5758 5756 5754 5753 5751 5750 5749 5748 5747 5746 5744 5743 5741 5741 5740 5739 5738 5737 5736 5735 5733
5785 5782 5779 5777 5774 5772 5771 5770 5769 5769 5768 5768 5767 5766 5766 5765 5764 5763 5762 5761 5759 5757 5756 5754 5753 5751 5750 5749 5748 5747 5746 5745 5743 5741 5740 5739 5739 5738 5736 5735 5734 5733 5732
5783 5780 5778 5775 5773 5771 5769 5768 5768 5767 5766 5766 5765 5764 5764 5763 5762 5761 5760 5759 5757 5755 5754 5753 5751 5750 5749 5747 5746 5746 5745 5743 5741 5740 5739 5738 5737 5736 5735 5733 5733 5731 5730
5780 5778 5776 5773 5771 5769 5767 5766 5766 5765 5764 5764 5763 5763 5762 5761 5760 5759 5758 5756 5755 5754 5753 5752 5750 5749 5747 5746 5745 5744 5743 5741 5740 5739 5737 5736 5736 5734 5733 5732 5731 5730 5728
5776 5775 5773 5771 5769 5767 5766 5764 5764 5763 5762 5762 5762 5761 5760 5759 5758 5757 5756 5754 5753 5752 5751 5750 5749 5747 5746 5745 5743 5742 5741 5740 5738 5737 5736 5735 5734 5733 5732 5730 5729 5728 5727
5772 5772 5771 5769 5767 5764 5764 5762 5761 5760 5760 5760 5760 5760 5759 5757 5756 5755 5754 5753 5752 5751 5750 5749 5748 5747 5745 5743 5742 5741 5739 5738 5736 5735 5735 5734 5733 5732 5730 5729 5728 5727 5726
5775 5771 5769 5767 5765 5763 5762 5759 5758 5758 5758 5758 5758 5758 5757 5756 5755 5753 5752 5751 5750 5749 5748 5747 5747 5746 5744 5742 5741 5740 5738 5737 5735 5734 5734 5733 5732 5731 5729 5727 5726 5725 5724
5776 5773 5769 5767 5764 5762 5760 5758 5756 5756 5756 5756 5757 5756 5756 5754 5753 5752 5751 5750 5749 5748 5747 5746 5746 5745 5743 5742 5740 5739 5738 5736 5735 5734 5733 5732 5731 5730 5728 5726 5725 5724 5723
5778 5774 5770 5766 5763 5761 5758 5757 5756 5755 5755 5756 5756 5756 5755 5754 5753 5752 5750 5749 5748 5747 5746 5745 5744 5743 5742 5741 5740 5739 5737 5735 5734 5733 5732 5731 5730 5729 5727 5726 5724 5723 5721
5779 5775 5771 5767 5763 5760 5758 5756 5756 5755 5755 5755 5756 5756 5755 5754 5753 5751 5750 5749 5748 5747 5746 5745 5744 5743 5742 5741 5740 5738 5737 5735 5734 5733 5732 5730 5729 5728 5727 5725 5724 5722 5721
5782 5777 5772 5769 5764 5760 5757 5756 5755 5755 5755 5755 5755 5755 5755 5754 5753 5752 5750 5749 5748 5748 5746 5745 5743 5742 5741 5740 5739 5738 5736 5735 5734 5733 5732 5730 5729 5727 5726 5725 5723 5722 5720
5783 5778 5774 5770 5764 5760 5757 5755 5755 5754 5754 5754 5755 5754 5754 5754 5753 5752 5751 5749 5749 5748 5746 5744 5743 5741 5740 5739 5738 5737 5736 5735 5734 5733 5731 5730 5729 5727 5726 5724 5723 5721 5720
5784 5778 5772 5769 5764 5760 5757 5756 5754 5753 5752 5752 5753 5753 5753 5753 5752 5752 5751 5750 5749 5748 5746 5745 5743 5741 5738 5738 5737 5737 5736 5735 5734 5733 5731 5730 5729 5728 5726 5725 5723 5722 5720
5783 5778 5773 5768 5763 5760 5757 5754 5751 5750 5751 5751 5752 5753 5753 5752 5752 5751 5750 5749 5749 5747 5745 5744 5742 5741 5740 5738 5738 5736 5735 5734 5734 5734 5733 5731 5730 5728 5727 5725 5724 5722 5721
5781 5776 5772 5766 5762 5759 5755 5751 5748 5747 5748 5749 5750 5751 5752 5751 5752 5751 5750 5749 5748 5746 5745 5744 5742 5740 5738 5738 5734 5731 5732 5734 5734 5734 5733 5732 5730 5729 5727 5726 5725 5723 5721
5779 5775 5771 5766 5763 5760 5757 5754 5751 5748 5747 5748 5748 5750 5750 5751 5751 5751 5749 5748 5748 5746 5744 5743 5742 5738 5737 5737 5732 5725 5721 5724 5730 5735 5733 5732 5731 5730 5728 5727 5725 5724 5722
5778 5775 5772 5767 5763 5760 5757 5753 5750 5747 5745 5744 5745 5747 5749 5749 5750 5750 5749 5748 5747 5746 5743 5743 5741 5738 5734 5735 5735 5728 5719 5716 5722 5729 5732 5732 5731 5730 5729 5728 5726 5725 5723
5779 5777 5773 5768 5763 5760 5756 5752 5748 5744 5742 5743 5745 5746 5747 5748 5748 5748 5748 5747 5746 5745 5743 5742 5741 5739 5736 5731 5732 5733 5731 5728 5721 5719 5725 5729 5730 5729 5729 5728 5727 5725 5723
5780 5776 5772 5767 5763 5760 5757 5754 5749 5746 5745 5745 5745 5744 5745 5746 5747 5747 5747 5747 5745 5744 5743 5742 5741 5739 5737 5733 5731 5731 5730 5728 5727 5721 5717 5721 5725 5727 5728 5728 5726 5724 5723
5780 5775 5771 5767 5763 5760 5757 5753 5750 5746 5745 5743 5743 5742 5742 5743 5744 5746 5746 5745 5744 5743 5742 5741 5740 5739 5737 5735 5733 5732 5729 5727 5724 5722 5718 5718 5718 5722 5725 5725 5724 5722 5721